• Join FlightAware (Why Join?)
  • Login
  • US Flag 
Rudolph Flight #1: Scheduled 
10:11PM EST


 

Airport Tracker/Info


-or-


 

Live Flight TrackerFlight Track Log ✈ SWA1796 ✈ 27-Apr-2013 ✈ KFLL - KMDW

Flight Track Log - Related Links

Times and Time Zones

All times are in EDT time to prevent confusion due to time zone crossing. See the SWA1796 flight status page for this flight to view local times or setup timezone preferences in your user account.

Time Position Orientation Groundspeed Altitude Reporting Facility
EDT Latitude Longitude Course Direction KTS MPH feet Rate Location/Type
06:34PM 26.0750 -80.1367 89° East 163 188 800  Level Miami Center
06:35PM 26.0758 -80.0972 89° East 197 227 1,900 1,800 Climbing Miami Center
06:36PM 26.0831 -80.0514 80° East 242 278 3,500 2,640 Climbing Miami Center
06:37PM 26.1136 -79.9875 62° Northeast 231 266 6,600 2,280 Climbing Miami Center
06:38PM 26.1739 -80.0119 340° North 167 192 8,100 1,200 Climbing Miami Center
06:39PM 26.2072 -80.1008 293° West 184 212 9,000 1,080 Climbing Miami Center
06:40PM 26.2408 -80.1900 293° West 256 295 10,300 1,560 Climbing Miami Center
06:41PM 26.2569 -80.3083 279° West 310 357 12,200 2,100 Climbing Miami Center
06:42PM 26.2711 -80.4131 279° West 371 427 14,500 2,520 Climbing Miami Center
06:43PM 26.2908 -80.5458 279° West 395 455 17,300 2,400 Climbing Miami Center
06:44PM 26.3447 -80.6378 303° West 390 449 19,400 2,220 Climbing Miami Center
06:45PM 26.4256 -80.7403 311° West 402 463 21,800 1,980 Climbing Miami Center
06:46PM 26.5181 -80.8011 330° Northwest 409 471 23,400 1,620 Climbing Miami Center
06:47PM 26.6308 -80.8794 328° Northwest 427 491 25,100 1,500 Climbing Miami Center
06:48PM 26.7353 -80.9528 328° Northwest 432 497 26,500 1,380 Climbing Miami Center
06:49PM 26.8292 -81.0211 327° Northwest 440 506 27,900 1,380 Climbing Miami Center
06:50PM 26.9375 -81.1019 326° Northwest 452 520 29,300 1,560 Climbing Miami Center
06:51PM 27.0461 -81.1758 329° Northwest 452 520 31,100 1,680 Climbing Miami Center
06:52PM 27.1461 -81.2517 326° Northwest 446 513 32,700 1,320 Climbing Miami Center
06:53PM 27.2483 -81.3233 328° Northwest 446 513 33,800 1,080 Climbing Miami Center
06:54PM 27.3669 -81.3981 331° Northwest 446 513 34,900 1,080 Climbing Miami Center
06:55PM 27.4656 -81.4536 333° Northwest 435 501 36,000 540 Climbing Miami Center
06:56PM 27.5742 -81.5164 333° Northwest 435 501 36,000  Level Miami Center
06:57PM 27.6925 -81.5917 331° Northwest 435 501 36,000  Level Miami Center
06:59PM 27.9319 -81.7300 333° Northwest 433 498 36,000 -60 Level Jacksonville Center
07:00PM 28.0367 -81.7922 332° Northwest 433 498 35,900  Descending Jacksonville Center
07:01PM 28.1436 -81.8569 332° Northwest 433 498 36,000  Climbing Jacksonville Center
07:02PM 28.2506 -81.9194 333° Northwest 433 498 36,000  Level Jacksonville Center
07:03PM 28.3553 -81.9844 331° Northwest 433 498 36,000  Level Jacksonville Center
07:04PM 28.4603 -82.0450 333° Northwest 433 498 36,000  Level Jacksonville Center
07:05PM 28.5669 -82.1103 332° Northwest 438 504 36,000  Level Jacksonville Center
07:06PM 28.6739 -82.1756 332° Northwest 438 504 36,000  Level Jacksonville Center
07:07PM 28.7806 -82.2389 333° Northwest 438 504 36,000  Level Jacksonville Center
07:08PM 28.8853 -82.3044 331° Northwest 438 504 36,000  Level Jacksonville Center
07:09PM 28.9900 -82.3681 332° Northwest 438 504 36,000  Level Jacksonville Center
07:10PM 29.1050 -82.4197 339° North 432 497 36,000  Level Jacksonville Center
07:11PM 29.2158 -82.4667 340° North 432 497 36,000  Level Jacksonville Center
07:12PM 29.3328 -82.5139 341° North 432 497 36,000  Level Jacksonville Center
07:13PM 29.4456 -82.5611 340° North 432 497 36,000  Level Jacksonville Center
07:14PM 29.5481 -82.6061 339° North 437 503 36,000  Level Jacksonville Center
07:15PM 29.6733 -82.6631 338° Northwest 437 503 36,000  Level Jacksonville Center
07:16PM 29.7861 -82.7108 340° North 437 503 36,000  Level Jacksonville Center
07:17PM 29.8989 -82.7583 340° North 432 497 36,000  Level Jacksonville Center
07:18PM 30.0117 -82.8061 340° North 427 491 36,000  Level Jacksonville Center
07:19PM 30.1142 -82.8494 340° North 433 498 36,000 -60 Level Jacksonville Center
07:20PM 30.2269 -82.8972 340° North 433 498 35,900  Descending Jacksonville Center
07:21PM 30.3417 -82.9456 340° North 433 498 36,000  Climbing Jacksonville Center
07:22PM 30.4564 -82.9961 339° North 433 498 36,000  Level Jacksonville Center
07:23PM 30.5692 -83.0444 340° North 433 498 36,000  Level Jacksonville Center
07:24PM 30.6819 -83.0956 339° North 433 498 36,000  Level Jacksonville Center
07:25PM 30.7986 -83.1464 339° North 433 498 36,000  Level Jacksonville Center
07:26PM 30.9197 -83.2025 338° Northwest 433 498 36,000  Level Jacksonville Center
07:27PM 31.0344 -83.2539 339° North 433 498 36,000  Level Jacksonville Center
07:28PM 31.1492 -83.3028 340° North 433 498 36,000  Level Jacksonville Center
07:30PM 31.4236 -83.4256 339° North 438 504 36,000  Level Atlanta Center
07:31PM 31.5367 -83.4761 339° North 431 496 36,000  Level Atlanta Center
07:32PM 31.6517 -83.5267 339° North 431 496 36,000  Level Atlanta Center
07:33PM 31.7667 -83.5772 340° North 431 496 36,000  Level Atlanta Center
07:34PM 31.8692 -83.6231 339° North 431 496 36,000  Level Atlanta Center
07:35PM 31.9778 -83.6739 338° Northwest 431 496 36,000  Level Atlanta Center
07:36PM 32.0906 -83.7250 339° North 431 496 36,000  Level Atlanta Center
07:37PM 32.2014 -83.7761 339° North 431 496 36,000  Level Atlanta Center
07:38PM 32.3161 -83.8275 339° North 431 496 36,000  Level Atlanta Center
07:39PM 32.4269 -83.8789 339° North 431 496 36,000 360 Level Atlanta Center
07:40PM 32.5439 -83.9231 342° North 431 496 36,800 900 Climbing Atlanta Center
07:41PM 32.6608 -83.9550 347° North 431 496 37,800 600 Climbing Atlanta Center
07:42PM 32.7778 -83.9869 347° North 431 496 38,000 60 Climbing Atlanta Center
07:43PM 32.8925 -84.0192 347° North 431 496 38,000  Level Atlanta Center
07:44PM 33.0114 -84.0536 346° North 431 496 38,000  Level Atlanta Center
07:45PM 33.1283 -84.0858 347° North 431 496 38,000  Level Atlanta Center
07:46PM 33.2431 -84.1158 348° North 431 496 38,000  Level Atlanta Center
07:47PM 33.3622 -84.1533 345° North 431 496 38,000  Level Atlanta Center
07:48PM 33.4769 -84.1833 348° North 431 496 38,000  Level Atlanta Center
07:49PM 33.6022 -84.2208 346° North 431 496 38,000  Level Atlanta Center
07:50PM 33.7189 -84.2536 347° North 431 496 38,000  Level Atlanta Center
07:51PM 33.8336 -84.2864 347° North 431 496 38,000  Level Atlanta Center
07:52PM 33.9547 -84.3217 346° North 431 496 38,000  Level Atlanta Center
07:53PM 34.0694 -84.3572 346° North 431 496 38,000  Level Atlanta Center
07:54PM 34.1842 -84.3828 350° North 450 518 38,000  Level Atlanta Center
07:55PM 34.3050 -84.4111 349° North 445 512 38,000  Level Atlanta Center
07:56PM 34.4364 -84.4417 349° North 439 505 38,000  Level Atlanta Center
07:57PM 34.5553 -84.4725 348° North 439 505 38,000  Level Atlanta Center
07:58PM 34.6742 -84.5008 349° North 433 498 38,000  Level Atlanta Center
07:59PM 34.7889 -84.5319 347° North 428 493 38,000  Level Atlanta Center
08:00PM 34.9097 -84.5631 348° North 423 487 38,000  Level Atlanta Center
08:01PM 35.0264 -84.5917 349° North 429 494 38,000  Level Atlanta Center
08:02PM 35.1472 -84.6206 349° North 429 494 38,000  Level Atlanta Center
08:03PM 35.2639 -84.6492 349° North 429 494 38,000  Level Atlanta Center
08:04PM 35.3808 -84.6781 349° North 429 494 38,000  Level Atlanta Center
08:05PM 35.4994 -84.7097 348° North 429 494 38,000  Level Atlanta Center
08:06PM 35.6203 -84.7386 349° North 429 494 38,000  Level Atlanta Center
08:07PM 35.7392 -84.7678 349° North 429 494 38,000  Level Atlanta Center
08:09PM 35.9497 -84.8206 349° North 450 518 38,000  Level Indianapolis Center
08:10PM 36.0744 -84.8511 349° North 447 514 38,000  Level Indianapolis Center
08:11PM 36.1953 -84.8825 348° North 446 513 38,000  Level Indianapolis Center
08:12PM 36.3164 -84.9131 349° North 446 513 38,000  Level Indianapolis Center
08:13PM 36.4369 -84.9456 348° North 443 510 38,000  Level Indianapolis Center
08:14PM 36.5586 -84.9761 349° North 446 513 38,000  Level Indianapolis Center
08:15PM 36.6808 -85.0067 349° North 448 516 38,000  Level Indianapolis Center
08:16PM 36.8044 -85.0400 348° North 453 521 38,000  Level Indianapolis Center
08:17PM 36.9272 -85.0719 348° North 453 521 38,000  Level Indianapolis Center
08:18PM 37.0533 -85.1036 349° North 451 519 38,000  Level Indianapolis Center
08:19PM 37.1775 -85.1364 348° North 451 519 38,000  Level Indianapolis Center
08:20PM 37.3006 -85.1683 348° North 450 518 38,000  Level Indianapolis Center
08:21PM 37.4261 -85.2022 348° North 457 526 38,000  Level Indianapolis Center
08:22PM 37.5511 -85.2350 348° North 456 525 38,000  Level Indianapolis Center
08:23PM 37.6772 -85.2689 348° North 458 527 38,000  Level Indianapolis Center
08:24PM 37.8031 -85.3019 348° North 460 529 38,000  Level Indianapolis Center
08:25PM 37.9514 -85.3408 348° North 470 541 38,000  Level Indianapolis Center
08:26PM 38.0761 -85.3750 348° North 462 532 38,000 -300 Level Indianapolis Center
08:27PM 38.2017 -85.4081 348° North 459 528 37,500 -720 Descending Indianapolis Center
08:28PM 38.3278 -85.4431 348° North 462 532 36,600 -960 Descending Indianapolis Center
08:29PM 38.4550 -85.4775 348° North 466 536 35,600 -840 Descending Indianapolis Center
08:30PM 38.5806 -85.5108 348° North 461 531 35,000 -300 Descending Indianapolis Center
08:31PM 38.7122 -85.5469 348° North 465 535 35,000 -300 Level Indianapolis Center
08:32PM 38.8386 -85.5811 348° North 463 533 34,400 -780 Descending Indianapolis Center
08:33PM 38.9664 -85.6172 348° North 468 539 33,500 -960 Descending Indianapolis Center
08:34PM 39.0939 -85.6522 348° North 466 536 32,500 -1,320 Descending Indianapolis Center
08:35PM 39.2197 -85.6878 348° North 463 533 30,900 -1,920 Descending Indianapolis Center
08:36PM 39.3414 -85.7208 348° North 446 513 28,700 -1,560 Descending Indianapolis Center
08:37PM 39.4583 -85.7531 348° North 431 496 27,800 -1,440 Descending Indianapolis Center
08:38PM 39.5722 -85.7853 348° North 420 483 25,800 -1,920 Descending Indianapolis Center
08:39PM 39.6833 -85.8169 348° North 411 473 24,000 -900 Descending Indianapolis Center
08:40PM 39.7917 -85.8467 348° North 400 460 24,000  Level Indianapolis Center
08:41PM 39.8972 -85.8808 346° North 392 451 24,000  Level Indianapolis Center
08:42PM 39.9989 -85.9297 340° North 388 447 24,000  Level Indianapolis Center
08:43PM 40.1019 -85.9792 340° North 393 452 24,000  Level Indianapolis Center
08:44PM 40.1706 -86.0097 341° North 394 453 24,000  Level Chicago Center
08:45PM 40.2742 -86.0592 340° North 396 456 24,000  Level Chicago Center
08:46PM 40.3806 -86.1100 340° North 404 465 24,000 -960 Level Chicago Center
08:47PM 40.4869 -86.1608 340° North 404 465 22,100 -1,920 Descending Chicago Center
08:48PM 40.5897 -86.2108 340° North 394 453 20,100 -2,040 Descending Chicago Center
08:49PM 40.7008 -86.2639 340° North 381 438 18,000 -1,980 Descending Chicago Center
08:50PM 40.7969 -86.3106 340° North 370 426 16,100 -1,860 Descending Chicago Center
08:51PM 40.8925 -86.3556 340° North 364 419 14,200 -1,920 Descending Chicago Center
08:52PM 40.9861 -86.4017 340° North 358 412 12,200 -1,620 Descending Chicago Center
08:53PM 41.0678 -86.4633 330° Northwest 347 399 11,000 -780 Descending Chicago Center
08:54PM 41.1286 -86.5550 311° West 331 381 10,700 -480 Descending Chicago Center
08:55PM 41.1883 -86.6475 311° West 331 381 10,100 -300 Descending Chicago Center
08:56PM 41.2475 -86.7400 310° West 326 375 10,100  Level Chicago Center
08:57PM 41.3056 -86.8311 310° West 324 373 10,100 -420 Level Chicago Center
08:58PM 41.3622 -86.9175 311° West 318 366 9,300 -1,200 Descending Chicago Center
08:59PM 41.4244 -87.0153 310° West 296 341 7,700 -1,680 Descending Chicago Center
09:00PM 41.4772 -87.0989 310° West 295 339 6,000 -1,140 Descending Chicago Center
09:01PM 41.5000 -87.1500 301° West 297 342 6,000  Level Chicago TRACON
09:02PM 41.5167 -87.2333 285° West 290 334 6,000 -120 Level Chicago TRACON
09:03PM 41.5333 -87.3500 281° West 291 335 5,800 -480 Descending Chicago TRACON
09:03PM 41.5503 -87.3989 295° West 291 335 5,300 -780 Descending Chicago Center
09:04PM 41.5703 -87.5019 285° West 289 333 4,500 -720 Descending Chicago Center
09:05PM 41.5900 -87.6008 285° West 285 328 3,900 -840 Descending Chicago Center
09:06PM 41.6008 -87.6997 278° West 278 320 2,900 -480 Descending Chicago Center
09:07PM 41.6167 -87.7953 283° West 244 281 3,000 60 Climbing Chicago Center
09:08PM 41.6333 -87.8167 316° Northwest 237 273 3,000 -480 Level Chicago TRACON
09:09PM 41.6833 -87.8500 334° Northwest 201 231 2,400 -540 Descending Chicago TRACON
09:10PM 41.7333 -87.8167 26° Northeast 182 209 2,000 -600 Descending Chicago TRACON
09:11PM 41.7667 -87.7833 37° Northeast 139 160 1,200 -780 Descending Chicago TRACON
09:13PM 41.7833 -87.7500 37° Northeast  Level FlightAware Approximate